CW2613 Weather Reports


Display with metric or nautical units.
time (UTC)temp
F
wind
direction
speed
MPH
gust
MPH
rain 1hr
in
rain 24hr
in
rain mn
in
humidity
%
barometer
mb
20260905000002 82 187 0.0 0.0 0.00 0.00 0.00 25 1013.3
20260904234557 83 187 0.0 0.0 0.00 0.00 0.00 36 1013.2
20260904233053 84 187 0.0 0.0 0.00 0.00 0.00 44 1013.1
20260904231552 84 163 0.0 0.0 0.00 0.00 0.00 46 1013.0
20260904230101 85 176 0.0 0.0 0.00 0.00 0.00 52 1012.7
20260904224540 86 235 0.0 0.0 0.00 0.00 0.00 56 1012.6
20260904223046 87 190 0.0 2.0 0.00 0.00 0.00 58 1012.5
20260904221530 88 293 0.0 0.0 0.00 0.00 0.00 57 1012.5
20260904220026 88 118 0.0 1.0 0.00 0.00 0.00 57 1012.5
20260904214522 89 165 0.0 1.0 0.00 0.00 0.00 60 1012.5
20260904213019 89 347 0.0 2.0 0.00 0.00 0.00 61 1012.8
20260904211514 89 203 0.0 2.0 0.00 0.00 0.00 61 1013.0
20260904210018 90 335 0.0 5.0 0.00 0.00 0.00 61 1012.9
20260904204504 92 79 0.0 2.0 0.00 0.00 0.00 61 1013.0
20260904203100 92 307 0.0 6.0 0.00 0.00 0.00 61 1013.0
20260904201558 94 207 0.0 1.0 0.00 0.00 0.00 61 1013.1
20260904200059 94 180 0.0 0.0 0.00 0.00 0.00 59 1013.0
20260904194549 93 176 0.0 0.0 0.00 0.00 0.00 60 1013.1
20260904193042 93 167 0.0 0.0 0.00 0.00 0.00 60 1013.1
20260904191537 94 161 0.0 0.0 0.00 0.00 0.00 59 1013.4
20260904190032 93 170 0.0 0.0 0.00 0.00 0.00 58 1013.9
20260904184546 90 193 0.0 0.0 0.00 0.00 0.00 61 1014.0
20260904183024 89 184 0.0 0.0 0.00 0.00 0.00 59 1014.0
20260904181525 91 149 0.0 0.0 0.00 0.00 0.00 61 1014.2
20260904180013 92 181 0.0 0.0 0.00 0.00 0.00 61 1014.4
20260904174511 89 193 0.0 0.0 0.00 0.00 0.00 60 1014.6
20260904173008 86 158 0.0 0.0 0.00 0.00 0.00 48 1014.6
20260904171605 84 173 0.0 0.0 0.00 0.00 0.00 41 1014.8
20260904170055 84 171 0.0 0.0 0.00 0.00 0.00 50 1015.0
20260904164551 84 195 0.0 0.0 0.00 0.00 0.00 53 1015.3
20260904163053 85 186 0.0 1.0 0.00 0.00 0.00 55 1015.3
20260904161542 90 288 1.0 10.0 0.00 0.00 0.00 60 1015.2
20260904160037 91 167 0.0 0.0 0.00 0.00 0.00 57 1015.0
20260904154532 91 155 0.0 1.0 0.00 0.00 0.00 59 1015.2
20260904153027 90 155 0.0 0.0 0.00 0.00 0.00 58 1015.2
20260904151521 90 203 0.0 0.0 0.00 0.00 0.00 55 1015.3
20260904150018 89 167 0.0 0.0 0.00 0.00 0.00 49 1015.2
20260904144512 88 219 0.0 0.0 0.00 0.00 0.00 46 1015.1
20260904143009 88 158 0.0 0.0 0.00 0.00 0.00 42 1015.0
20260904141503 87 200 0.0 1.0 0.00 0.00 0.00 38 1014.8
20260904134557 88 185 0.0 0.0 0.00 0.00 0.00 37 1014.6
20260904133050 87 77 0.0 0.0 0.00 0.00 0.00 31 1014.6
20260904131545 86 162 0.0 0.0 0.00 0.00 0.00 19 1014.4
20260904130041 84 165 0.0 0.0 0.00 0.00 0.00 1 1014.4
20260904124538 82 161 0.0 0.0 0.00 0.00 0.00 1 1014.3
20260904123032 80 174 0.0 0.0 0.00 0.00 0.00 1 1014.1
20260904121529 78 185 0.0 0.0 0.00 0.00 0.00 1 1014.1
20260904120027 77 185 0.0 0.0 0.00 0.00 0.00 1 1013.9
20260904114518 0 0.0 0.0 0.00 0.00 0.00 1013.8
20260904113014 0 0.0 0.0 0.00 0.00 0.00 1013.6
20260904111509 0 0.0 0.0 0.00 0.00 0.00 1013.5
20260904110005 0 0.0 0.0 0.00 0.00 0.00 1013.4
20260904104600 0 0.0 0.0 0.00 0.00 0.00 1013.2
20260904103101 0 0.0 0.0 0.00 0.00 0.00 1013.2
20260904101552 0 0.0 0.0 0.00 0.00 0.00 1013.0
20260904100047 0 0.0 0.0 0.00 0.00 0.00 1012.9
20260904094543 0 0.0 0.0 0.00 0.00 0.00 1012.8
20260904093055 0 0.0 0.0 0.00 0.00 0.00 1012.7
20260904091535 0 0.0 0.0 0.00 0.00 0.00 1012.6
20260904090029 0 0.0 0.0 0.00 0.00 0.00 1012.4
20260904084525 0 0.0 0.0 0.00 0.00 0.00 1012.5
20260904083021 0 0.0 0.0 0.00 0.00 0.00 1012.4
20260904081517 0 0.0 0.0 0.00 0.00 0.00 1012.4
20260904080012 0 0.0 0.0 0.00 0.00 0.00 1012.4
20260904074508 0 0.0 0.0 0.00 0.00 0.00 1012.2
20260904073015 0 0.0 0.0 0.00 0.00 0.00 1012.3
20260904071601 0 0.0 0.0 0.00 0.00 0.00 1012.3
20260904070057 0 0.0 0.0 0.00 0.00 0.00 1012.3
20260904064550 0 0.0 0.0 0.00 0.00 0.00 1012.5
20260904063050 0 0.0 0.0 0.00 0.00 0.00 1012.6
20260904061542 0 0.0 0.0 0.00 0.00 0.00 1012.7
20260904060037 0 0.0 0.0 0.00 0.00 0.00 1012.9
20260904054533 0 0.0 0.0 0.00 0.00 0.00 1013.1
20260904053031 0 0.0 0.0 0.00 0.00 0.00 1013.0
20260904051527 0 0.0 0.0 0.00 0.00 0.00 1012.9
20260904050020 0 0.0 0.0 0.00 0.00 0.00 1013.0
20260904044516 0 0.0 0.0 0.00 0.00 0.00 1013.2
20260904043011 77 182 0.0 0.0 0.00 0.00 0.00 1 1013.3
20260904041506 77 186 0.0 0.0 0.00 0.00 0.00 1 1013.3
20260904040002 78 186 0.0 0.0 0.00 0.00 0.00 1 1013.4
20260904034602 78 186 0.0 0.0 0.00 0.00 0.00 1 1013.5
20260904033104 78 186 0.0 0.0 0.00 0.00 0.00 1 1013.5
20260904031549 77 186 0.0 0.0 0.00 0.00 0.00 1 1013.3
20260904030044 78 186 0.0 0.0 0.00 0.00 0.00 1 1013.5
20260904024539 77 186 0.0 0.0 0.00 0.00 0.00 1 1013.4
20260904023038 77 186 0.0 0.0 0.00 0.00 0.00 1 1013.4
20260904021533 77 186 0.0 0.0 0.00 0.00 0.00 1 1013.6
20260904020027 77 186 0.0 0.0 0.00 0.00 0.00 1 1013.7
20260904014522 77 186 0.0 0.0 0.00 0.00 0.00 1 1013.8
20260904013019 77 186 0.0 0.0 0.00 0.00 0.00 1 1013.5
20260904011515 77 186 0.0 0.0 0.00 0.00 0.00 1 1013.3
20260904010009 76 186 0.0 0.0 0.00 0.00 0.00 1 1013.2
20260904004504 76 186 0.0 0.0 0.00 0.00 0.00 1 1013.0
20260904003111 76 186 0.0 0.0 0.00 0.00 0.00 1 1012.8
20260904001555 76 186 0.0 0.0 0.00 0.00 0.00 1 1012.8
20260904000051 76 186 0.0 0.0 0.00 0.00 0.00 1 1013.0